ORBCOMM FM18 [-]

Last updated on Fri Dec 29 2023 00:02:53 GMT+0000 (Coordinated Universal Time)

1 25414U 98046B 23362.45171937 .00001585 00000+0 59765-3 0 9999 2 25414 44.9920 195.4565 0004754 102.4355 257.7024 14.35248883327220
UTC large
Height (km)
Speed (km/s)
/
Latitude / Longitude
Inclination (degrees)
Orbital Period (minutes)
Azimuth
Elevation
Range (km)
Doppler Factor

Next 0 passes for location: London (51.5072 / 0.1276)

Sorry there are no passes over London.
ORBCOMM FM18 [-]